When you browse on this site, cookies collect data to enhance your experience and personalize the content and advertising you see.
Visit our Privacy Policy to learn more. By continuing to use the site, you agree to this use of cookies and data.
  • In Hungary
  • List of Countries
  • For 7 days
  • Water Temperature
  • Weather Map
  • News
  • Weather Widgets
  • user-avatar
    Login

    Hourly Weather Barro

    Today, 17 November, Sunday

    Time Temperature Precipitation Wind Pressure Humidity
    00:00 +25°C° 0 mm 1 mps 732 mmHg 78%
    01:00 +24°C° 0 mm 1 mps 732 mmHg 83%
    02:00 +24°C° 0 mm 1 mps 732 mmHg 87%
    03:00 +23°C° 0 mm 1 mps 732 mmHg 90%
    04:00 +23°C° 0 mm 1 mps 732 mmHg 88%
    05:00 +23°C° 0 mm 1 mps 733 mmHg 86%
    06:00 +24°C° 0 mm 1 mps 733 mmHg 84%
    07:00 +27°C° 0 mm 1 mps 734 mmHg 70%
    08:00 +30°C° 0 mm 2 mps 734 mmHg 55%
    09:00 +34°C° 0 mm 3 mps 735 mmHg 41%
    10:00 +36°C° 0 mm 3 mps 734 mmHg 35%
    11:00 +38°C° 0 mm 3 mps 733 mmHg 30%
    12:00 +40°C° 0 mm 3 mps 732 mmHg 25%
    13:00 +42°C° 0 mm 3 mps 732 mmHg 24%
    14:00 +42°C° 0 mm 3 mps 731 mmHg 22%
    15:00 +42°C° 0 mm 3 mps 730 mmHg 21%
    16:00 +39°C° 0 mm 3 mps 730 mmHg 24%
    17:00 +37°C° 0 mm 2 mps 730 mmHg 27%
    18:00 +34°C° 0 mm 1 mps 730 mmHg 29%
    19:00 +32°C° 0 mm 2 mps 731 mmHg 36%
    20:00 +31°C° 0 mm 2 mps 732 mmHg 42%
    21:00 +29°C° 0 mm 3 mps 733 mmHg 49%
    22:00 +28°C° 0 mm 2 mps 733 mmHg 58%
    23:00 +26°C° 0 mm 2 mps 733 mmHg 66%

    Tomorrow, 18 November, Monday

    Time Temperature Precipitation Wind Pressure Humidity
    00:00 +25°C° 0 mm 1 mps 733 mmHg 75%
    01:00 +24°C° 0 mm 1 mps 733 mmHg 79%
    02:00 +23°C° 0 mm 1 mps 733 mmHg 84%
    03:00 +23°C° 0 mm 1 mps 733 mmHg 89%
    04:00 +23°C° 0 mm 1 mps 734 mmHg 86%
    05:00 +24°C° 0 mm 1 mps 734 mmHg 84%
    06:00 +24°C° 0 mm 1 mps 735 mmHg 82%
    07:00 +27°C° 0 mm 1 mps 735 mmHg 68%
    08:00 +30°C° 0 mm 2 mps 735 mmHg 55%
    09:00 +34°C° 0 mm 3 mps 736 mmHg 42%
    10:00 +36°C° 0 mm 3 mps 735 mmHg 35%
    11:00 +38°C° 0 mm 2 mps 734 mmHg 29%
    12:00 +41°C° 0 mm 2 mps 734 mmHg 23%
    13:00 +41°C° 0 mm 2 mps 733 mmHg 22%
    14:00 +41°C° 0 mm 2 mps 732 mmHg 20%
    15:00 +42°C° 0 mm 2 mps 731 mmHg 19%
    16:00 +39°C° 0 mm 2 mps 731 mmHg 21%
    17:00 +37°C° 0 mm 2 mps 732 mmHg 24%
    18:00 +34°C° 0 mm 1 mps 732 mmHg 26%
    19:00 +34°C° 0 mm 2 mps 732 mmHg 32%
    20:00 +31°C° 0 mm 2 mps 733 mmHg 37%
    21:00 +30°C° 0 mm 3 mps 734 mmHg 43%
    22:00 +29°C° 0 mm 2 mps 734 mmHg 52%
    23:00 +27°C° 0 mm 2 mps 734 mmHg 62%

    Day after tomorrow, 19 November, Tuesday

    Time Temperature Precipitation Wind Pressure Humidity
    00:00 +26°C° 0 mm 1 mps 734 mmHg 71%
    01:00 +25°C° 0 mm 1 mps 734 mmHg 74%
    02:00 +24°C° 0 mm 1 mps 734 mmHg 78%
    03:00 +24°C° 0 mm 1 mps 734 mmHg 82%
    04:00 +24°C° 0 mm 1 mps 735 mmHg 80%
    05:00 +24°C° 0 mm 1 mps 735 mmHg 78%
    06:00 +24°C° 0 mm 1 mps 735 mmHg 77%
    07:00 +27°C° 0 mm 2 mps 735 mmHg 65%
    08:00 +30°C° 0 mm 2 mps 736 mmHg 53%
    09:00 +34°C° 0 mm 2 mps 736 mmHg 42%
    10:00 +37°C° 0 mm 2 mps 735 mmHg 36%
    11:00 +39°C° 0 mm 2 mps 734 mmHg 30%
    12:00 +42°C° 0 mm 2 mps 734 mmHg 24%
    13:00 +41°C° 0 mm 2 mps 733 mmHg 23%
    14:00 +41°C° 0 mm 2 mps 732 mmHg 22%
    15:00 +41°C° 0 mm 2 mps 731 mmHg 21%
    16:00 +39°C° 0 mm 1 mps 731 mmHg 24%
    17:00 +36°C° 0 mm 1 mps 731 mmHg 26%
    18:00 +34°C° 0 mm 1 mps 731 mmHg 29%
    19:00 +34°C° 0 mm 1 mps 732 mmHg 32%
    20:00 +33°C° 0 mm 1 mps 733 mmHg 35%
    21:00 +32°C° 0 mm 2 mps 733 mmHg 37%
    22:00 +31°C° 0 mm 2 mps 734 mmHg 46%
    23:00 +29°C° 0 mm 2 mps 734 mmHg 55%

    20 November, Wednesday

    Time Temperature Precipitation Wind Pressure Humidity
    00:00 +28°C° 0 mm 2 mps 734 mmHg 64%
    01:00 +27°C° 0 mm 2 mps 734 mmHg 68%
    02:00 +26°C° 0 mm 1 mps 734 mmHg 72%
    03:00 +24°C° 0 mm 1 mps 734 mmHg 77%
    04:00 +25°C° 0 mm 1 mps 734 mmHg 76%
    05:00 +25°C° 0 mm 1 mps 735 mmHg 74%
    06:00 +25°C° 0 mm 1 mps 735 mmHg 73%
    07:00 +28°C° 0 mm 1 mps 735 mmHg 63%
    08:00 +31°C° 0 mm 2 mps 735 mmHg 53%
    09:00 +34°C° 0 mm 2 mps 736 mmHg 42%
    10:00 +37°C° 0 mm 2 mps 735 mmHg 36%
    11:00 +40°C° 0 mm 2 mps 734 mmHg 30%
    12:00 +42°C° 0 mm 1 mps 733 mmHg 24%
    13:00 +42°C° 0 mm 1 mps 733 mmHg 24%
    14:00 +41°C° 0 mm 1 mps 732 mmHg 24%
    15:00 +41°C° 0 mm 1 mps 731 mmHg 24%
    16:00 +39°C° 0 mm 1 mps 731 mmHg 26%
    17:00 +36°C° 0 mm 1 mps 731 mmHg 29%
    18:00 +34°C° 0 mm 1 mps 731 mmHg 32%
    19:00 +34°C° 0 mm 2 mps 732 mmHg 35%
    20:00 +32°C° 0 mm 2 mps 733 mmHg 39%
    21:00 +33°C° 0 mm 3 mps 733 mmHg 43%
    22:00 +30°C° 0.1 mm 3 mps 734 mmHg 52%
    23:00 +28°C° 0.1 mm 2 mps 734 mmHg 61%

    21 November, Thursday

    Time Temperature Precipitation Wind Pressure Humidity
    00:00 +27°C° 0.1 mm 2 mps 734 mmHg 69%
    01:00 +26°C° 0 mm 2 mps 734 mmHg 73%
    02:00 +25°C° 0 mm 1 mps 734 mmHg 77%
    03:00 +24°C° 0 mm 1 mps 734 mmHg 81%
    04:00 +24°C° 0 mm 1 mps 734 mmHg 79%
    05:00 +24°C° 0 mm 1 mps 734 mmHg 78%
    06:00 +24°C° 0 mm 1 mps 734 mmHg 76%
    07:00 +27°C° 0 mm 2 mps 735 mmHg 64%
    08:00 +30°C° 0 mm 2 mps 735 mmHg 51%
    09:00 +34°C° 0 mm 2 mps 735 mmHg 39%
    10:00 +36°C° 0 mm 2 mps 735 mmHg 34%
    11:00 +38°C° 0 mm 2 mps 734 mmHg 29%
    12:00 +40°C° 0 mm 2 mps 733 mmHg 23%
    13:00 +40°C° 0 mm 2 mps 733 mmHg 22%
    14:00 +40°C° 0 mm 2 mps 732 mmHg 22%
    15:00 +40°C° 0 mm 2 mps 731 mmHg 21%
    16:00 +38°C° 0 mm 2 mps 731 mmHg 24%
    17:00 +36°C° 0 mm 2 mps 731 mmHg 28%
    18:00 +34°C° 0 mm 2 mps 731 mmHg 32%
    19:00 +32°C° 0 mm 2 mps 732 mmHg 37%
    20:00 +30°C° 0 mm 1 mps 732 mmHg 42%
    21:00 +29°C° 0 mm 1 mps 733 mmHg 46%
    22:00 +27°C° 0 mm 1 mps 733 mmHg 56%
    23:00 +26°C° 0 mm 1 mps 733 mmHg 65%

    22 November, Friday

    Time Temperature Precipitation Wind Pressure Humidity
    00:00 +25°C° 0 mm 1 mps 733 mmHg 75%
    01:00 +24°C° 0 mm 1 mps 733 mmHg 77%
    02:00 +24°C° 0 mm 1 mps 733 mmHg 80%
    03:00 +23°C° 0 mm 1 mps 733 mmHg 82%
    04:00 +23°C° 0 mm 1 mps 733 mmHg 79%
    05:00 +23°C° 0 mm 1 mps 734 mmHg 76%
    06:00 +23°C° 0 mm 1 mps 734 mmHg 74%
    07:00 +26°C° 0 mm 2 mps 734 mmHg 61%
    08:00 +29°C° 0 mm 2 mps 735 mmHg 48%
    09:00 +32°C° 0 mm 2 mps 735 mmHg 36%
    10:00 +36°C° 0 mm 2 mps 734 mmHg 32%
    11:00 +38°C° 0 mm 2 mps 734 mmHg 28%
    12:00 +40°C° 0 mm 2 mps 733 mmHg 24%
    13:00 +40°C° 0 mm 3 mps 732 mmHg 22%
    14:00 +40°C° 0 mm 3 mps 731 mmHg 21%
    15:00 +40°C° 0 mm 3 mps 731 mmHg 19%
    16:00 +38°C° 0 mm 2 mps 731 mmHg 22%
    17:00 +36°C° 0 mm 2 mps 731 mmHg 24%
    18:00 +33°C° 0 mm 1 mps 731 mmHg 27%
    19:00 +31°C° 0 mm 2 mps 732 mmHg 32%
    20:00 +30°C° 0 mm 3 mps 732 mmHg 37%
    21:00 +29°C° 0 mm 3 mps 733 mmHg 43%
    22:00 +28°C° 0 mm 2 mps 733 mmHg 52%
    23:00 +26°C° 0 mm 2 mps 733 mmHg 62%
    Show more